Regional Weather Roundup
Issued by NWS

Home | Current Version | Previous Version | Text Only | Print | Product List | Glossary Off
Versions: 1 2 3 4 5 6 7 8 9 10 11 12 13 14 15 16 17 18 19 20 21 22 23 24 25 26 27 28 29 30 31 32 33 34 35 36 37 38 39 40 41 42 43 44 45 46 47 48 49 50

000
ASUS45 KPSR 230910
RWRAZ

ARIZONA REGIONAL HOURLY WEATHER ROUNDUP
NATIONAL WEATHER SERVICE TUCSON AZ
200 AM MST FRI JUN 23 2017

NOTE: FAIR INDICATES FEW OR NO CLOUDS BELOW 12,000 FEET WITH NO
SIGNIFICANT WEATHER AND/OR OBSTRUCTIONS TO VISIBILITY.

AZZ001>003-036-231000-
NORTHWEST ARIZONA

CITY           SKY/WX    TMP DP  RH WIND       PRES   REMARKS
BULLHEAD CITY  CLEAR     97  54  23 CALM      29.67R
KINGMAN        CLEAR     78  41  26 SW10      29.90S
$$

AZZ004>008-015-016-018-231000-
NORTH CENTRAL ARIZONA

CITY           SKY/WX    TMP DP  RH WIND       PRES   REMARKS
GRAND CANYON   CLEAR     51  23  33 NE3       30.20
PRESCOTT       CLEAR     76  40  27 S6        30.05S
FLAGSTAFF      CLEAR     54  29  38 CALM      30.21F
PAYSON         SUNNY     73  32  21 CALM      30.09S
PAGE           CLEAR     83  32  16 NW5       29.94S
$$

AZZ009>014-017-231000-
NORTHEAST ARIZONA

CITY           SKY/WX    TMP DP  RH WIND       PRES   REMARKS
WINSLOW        CLEAR     74  30  19 CALM      30.03R
SAINT JOHNS    CLEAR     72  33  24 SE3       30.08R
WINDOW ROCK    CLEAR     58  21  24 S5        30.14S
SHOW LOW       CLEAR     68  34  28 S8        30.17S
$$

AZZ023-231000-
GREATER PHOENIX AREA

CITY           SKY/WX    TMP DP  RH WIND       PRES   REMARKS
PHOENIX        CLEAR     94  56  27 W12       29.72R
BUCKEYE        SUNNY     84  57  39 W7        29.74S
LUKE AFB       CLEAR     91  59  34 SW13      29.71S
DEER VALLEY    CLEAR     89  59  36 W5        29.74F
SCOTTSDALE     CLEAR     91  59  33 CALM      29.77S
MESA-GATEWAY   CLEAR     86  57  37 SE3       29.76S
$$

AZZ027-028-231000-
SOUTHWEST MARICOPA COUNTY AND PINAL COUNTY

CITY           SKY/WX    TMP DP  RH WIND       PRES   REMARKS
CASA GRANDE    CLEAR     88  57  34 CALM      29.78R
$$

AZZ503-504-507>509-231000-
SOUTHEAST ARIZONA

CITY           SKY/WX    TMP DP  RH WIND       PRES   REMARKS
TUCSON         PTCLDY    90  58  33 SE6       29.89R
DAVIS-MONTHAN  PTCLDY    86  58  38 W3        29.88R
NOGALES        PTCLDY    81  54  39 SW3       30.00S
SIERRA VISTA   MOCLDY    84  47  27 NW8       30.03F
DOUGLAS        MOCLDY    79  46  31 N5        29.97F
SAFFORD        CLEAR     89  40  17 NW13      29.83S
$$

AZZ020-021-025-026-031-231000-
SOUTHWEST ARIZONA

CITY           SKY/WX    TMP DP  RH WIND       PRES   REMARKS
YUMA           CLEAR     81  66  60 S8        29.70S
$$

CAZ031-033-041-043-047-048-061-231000-
SOUTHERN CALIFORNIA

CITY           SKY/WX    TMP DP  RH WIND       PRES   REMARKS
DOWNTOWN L.A.  NOT AVBL
L.A. AIRPORT   CLOUDY    66  61  84 S5        29.88R
SAN DIEGO      CLOUDY    67  61  81 W5        29.88S
BURBANK        CLOUDY    63  59  87 SE6       29.87S
ONTARIO        CLEAR     63  60  90 W5        29.88S
RIVERSIDE      CLEAR     62  60  93 W6        29.88S
PALM SPRINGS   CLEAR     87  55  33 NW5       29.75R
EL CENTRO NAS  CLEAR     80  69  69 E5        29.68S
IMPERIAL       CLEAR     82  73  74 E6        29.67R
BLYTHE         CLEAR     87  61  41 S12       29.69S
NEEDLES        CLEAR     98  56  24 SW12G22   29.68S
$$

NVZ020-UTZ003-231000-
SOUTHERN NEVADA-UTAH

CITY           SKY/WX    TMP DP  RH WIND       PRES   REMARKS
LAS VEGAS      CLEAR     98  22   6 S6        29.73S
SALT LAKE CITY CLEAR     63  41  44 W7        30.08R
$$

NMZ009-TXZ055-231000-
NEW MEXICO-WEST TEXAS

CITY           SKY/WX    TMP DP  RH WIND       PRES   REMARKS
ALBUQUERQUE    CLEAR     71  21  15 SE10      29.98R
EL PASO        MOCLDY    93  38  14 NW7       29.80S
$$


........................KEY........................
SKY/WX - SKY CONDITION/WEATHER
TMP    - TEMPERATURE IN FAHRENHEIT
DP     - DEWPOINT IN FAHRENHEIT
RH     - RELATIVE HUMIDITY IN PERCENT
WIND   - DIRECTION AND SPEED IN MILES PER HOUR (MPH)
VRB    - VARIABLE WIND DIRECTION
PRES   - MEAN SEA LEVEL PRESSURE IN INCHES OF MERCURY
         F - FALLING PRESSURE   R - RISING PRESSURE
         S - STEADY PRESSURE
VSB    - VISIBILITY IN MILES
HX     - HEAT INDEX IN FAHRENHEIT
WCI    - WIND CHILL INDEX IN FAHRENHEIT
TC     - TEMPERATURE IN CELSIUS WHICH IS ALSO KNOWN AS
         TEMPERATURE IN CENTIGRADE
AFB    - AIR FORCE BASE
         LUKE AFB IS LUKE AIR FORCE BASE
         DAVIS-MONTHAN IS DAVIS-MONTHAN AIR FORCE BASE
NAS    - NAVAL AIR STATION
         EL CENTRO NAS IS EL CENTRO NAVAL AIR STATION
N/A    - NOT AVAILABLE




USA.gov is the U.S. government's official web portal to all federal, state and local government web resources and services.